KB4QOR Weather Reports


Display with metric or nautical units.
time (UTC)temp
F
wind
direction
speed
MPH
gust
MPH
rain 1hr
in
rain 24hr
in
rain mn
in
humidity
%
barometer
mb
20260503231541 63 252 2.0 7.0 0.00 0.00 0.00 68 1014.3
20260503230028 63 246 2.0 9.0 0.00 0.00 0.00 68 1014.5
20260503224528 63 265 2.0 9.0 0.00 0.00 0.00 66 1015.0
20260503223030 64 171 2.0 10.0 0.00 0.00 0.00 66 1015.3
20260503221527 64 88 3.0 11.0 0.00 0.00 0.00 64 1015.0
20260503220035 65 261 3.0 15.0 0.00 0.00 0.00 66 1015.6
20260503214527 65 297 2.0 13.0 0.00 0.00 0.00 65 1015.7
20260503213049 65 284 4.0 10.0 0.00 0.00 0.00 66 1015.9
20260503211533 65 0 3.0 8.0 0.00 0.00 0.00 65 1015.5
20260503210030 65 275 3.0 11.0 0.00 0.00 0.00 67 1016.0
20260503204549 65 284 3.0 13.0 0.00 0.00 0.00 65 1016.0
20260503203033 65 271 3.0 11.0 0.00 0.00 0.00 68 1016.4
20260503201530 65 225 1.0 8.0 0.00 0.00 0.00 67 1016.5
20260503200031 64 273 3.0 10.0 0.00 0.00 0.00 68 1017.1
20260503194532 64 269 1.0 9.0 0.00 0.00 0.00 68 1017.3
20260503193032 63 271 2.0 8.0 0.00 0.00 0.00 70 1017.7
20260503191530 62 217 2.0 8.0 0.00 0.00 0.00 70 1018.1
20260503190029 61 273 1.0 7.0 0.00 0.00 0.00 72 1018.2
20260503184534 60 271 2.0 9.0 0.00 0.00 0.00 73 1018.3
20260503183040 59 280 2.0 11.0 0.00 0.00 0.00 74 1018.5
20260503181528 57 271 2.0 9.0 0.00 0.00 0.00 71 1018.9
20260503180034 56 265 1.0 7.0 0.00 0.00 0.00 66 1018.9
20260503174541 54 70 2.0 7.0 0.00 0.00 0.00 64 1019.3
20260503173027 53 272 2.0 10.0 0.00 0.00 0.00 66 1019.7
20260503171533 51 90 2.0 8.0 0.00 0.00 0.00 66 1019.9
20260503150114 48 0 2.0 7.0 0.00 0.00 0.00 65 1020.9
20260503081539 43 0 0.0 0.0 0.00 0.00 0.00 66 1019.8
20260503071550 44 0 0.0 0.0 0.00 0.00 0.00 65 1019.5
20260503054540 46 0 0.0 0.0 0.00 0.00 0.00 64 1019.8
20260503053030 46 0 0.0 0.0 0.00 0.00 0.00 64 1019.7
20260503051540 46 0 0.0 0.0 0.00 0.00 0.00 64 1019.7
20260503050029 47 0 0.0 0.0 0.00 0.00 0.00 63 1019.7
20260503044531 47 0 0.0 0.0 0.00 0.00 0.00 63 1019.6
20260503043028 47 0 0.0 0.0 0.00 0.00 0.00 63 1019.6
20260503041532 48 0 0.0 0.0 0.00 0.00 0.00 62 1019.5
20260503040027 48 0 0.0 0.0 0.00 0.00 0.00 62 1019.5
20260503034530 49 0 0.0 0.0 0.00 0.00 0.00 62 1019.5
20260503033030 49 0 0.0 0.0 0.00 0.00 0.00 62 1019.4
20260503031536 50 0 0.0 0.0 0.00 0.00 0.00 62 1019.4
20260503030033 50 0 0.0 1.0 0.00 0.00 0.00 62 1019.3
20260503024539 51 0 0.0 0.0 0.00 0.00 0.00 62 1019.0
20260503023030 51 0 0.0 0.0 0.00 0.00 0.00 64 1018.7
20260503021532 51 0 0.0 0.0 0.00 0.00 0.00 65 1018.8
20260503020032 51 0 0.0 0.0 0.00 0.00 0.00 66 1018.6
20260503014530 52 0 0.0 0.0 0.00 0.00 0.00 65 1018.4
20260503013034 52 0 0.0 0.0 0.00 0.00 0.00 66 1018.2
20260503011528 52 0 0.0 0.0 0.00 0.00 0.00 66 1018.1
20260503010032 53 0 0.0 0.0 0.00 0.00 0.00 68 1017.8
20260503004535 53 0 0.0 0.0 0.00 0.00 0.00 68 1017.8
20260503003035 54 0 0.0 0.0 0.00 0.00 0.00 68 1017.7
20260503001531 54 0 0.0 0.0 0.00 0.00 0.00 68 1017.5
20260503000029 54 0 0.0 1.0 0.00 0.00 0.00 68 1017.3
20260502234534 54 0 0.0 0.0 0.00 0.00 0.00 68 1017.2
20260502233030 55 0 0.0 1.0 0.00 0.00 0.00 68 1017.3